R/V Knorr Calliope CSV data file - KN195_VI  (Time stamps are GMT)
Date, Time_GMT, Depth12, Depth35, Air_Temp, WXT5_Ta, WXT5_Pa, dec_lat, dec_lon, GPS_COG, GPS_SOG, Gyro, IMET_BPR, IMET_SWR, WXT5_Ri, WXT5_Rc, HRH, WXT5_Ua, WXT5_Dm, WXT5_Sm, SBE45C, SBE45S, SBE45T, Salinity, SSCND, Fluorometer, SSTMP, SSV, Wnd_Dir, TWD5, Wnd_Spd, TWS5, HdChkSum=3E
2009/04/21, 00:00:23, , , 23.01, 23.20, 1010.5, 19.4984380, -150.7056150, 290.60, 12.55, 290.10, 1010.55, 871.70, 0.0, 199.23, 82.52, 79.0, 303, 5.7, 53.06440, 34.51200, 25.6306, 34.5120, 53.0644, 76.50, 23.4726, 1530.10, 165.80, 161.8, 6.23, 6.2, 3E
2009/04/21, 00:01:22, , , 23.09, 23.20, 1010.6, 19.4996300, -150.7090330, 288.60, 12.27, 289.90, 1010.53, 875.10, 0.0, 199.23, 82.88, 78.9, 300, 5.9, 53.06590, 34.51010, 25.6346, 34.5101, 53.0659, 77.20, 23.4729, 1530.10, 165.10, 161.2, 6.46, 5.4, 3E
2009/04/21, 00:02:22, , , 23.10, 23.20, 1010.6, 19.5008470, -150.7124480, 289.50, 12.76, 287.70, 1010.39, 888.30, 0.0, 199.23, 83.02, 78.9, 306, 4.7, 53.06440, 34.50770, 25.6363, 34.5077, 53.0644, 77.20, 23.4773, 1530.11, 165.20, 158.8, 6.96, 5.7, 3E
2009/04/21, 00:03:22, , , 23.13, 23.20, 1010.6, 19.5020580, -150.7158820, 292.40, 12.14, 288.60, 1010.64, 906.30, 0.0, 199.23, 83.31, 78.9, 311, 5.7, 53.06050, 34.50380, 25.6376, 34.5038, 53.0605, 76.80, 23.4852, 1530.12, 164.80, 164.2, 6.60, 5.3, 3E
2009/04/21, 00:04:22, , , 23.10, 23.20, 1010.6, 19.5032670, -150.7193120, 289.20, 11.96, 288.60, 1010.48, 895.30, 0.0, 199.23, 82.83, 79.1, 309, 5.8, 53.05670, 34.50070, 25.6380, 34.5007, 53.0567, 76.80, 23.4888, 1530.13, 164.90, 160.3, 6.48, 6.0, 3E
2009/04/21, 00:05:22, , , 23.08, 23.30, 1010.6, 19.5044420, -150.7227750, 287.60, 12.62, 290.60, 1010.72, 945.30, 0.0, 199.23, 82.81, 79.3, 306, 4.9, 53.05330, 34.49730, 25.6394, 34.4973, 53.0533, 76.80, 23.4940, 1530.14, 162.20, 155.5, 6.76, 5.7, 3E
2009/04/21, 00:06:22, , , 23.17, 23.30, 1010.6, 19.5056650, -150.7261800, 292.00, 12.49, 289.60, 1010.33, 857.50, 0.0, 199.23, 83.12, 79.6, 311, 6.0, 53.05050, 34.49490, 25.6398, 34.4949, 53.0505, 76.80, 23.4984, 1530.15, 160.20, 163.0, 6.35, 5.8, 3E
2009/04/21, 00:07:22, , , 23.11, 23.30, 1010.7, 19.5068400, -150.7296020, 291.50, 11.81, 289.10, 1010.51, 726.50, 0.0, 199.23, 83.30, 79.1, 312, 5.4, 53.04590, 34.49220, 25.6389, 34.4922, 53.0459, 76.80, 23.5023, 1530.15, 161.30, 160.0, 5.89, 5.6, 3E
2009/04/21, 00:08:22, , , 23.09, 23.30, 1010.7, 19.5080450, -150.7329730, 287.70, 12.03, 289.40, 1010.27, 544.10, 0.0, 199.23, 82.97, 79.5, 313, 5.3, 53.04360, 34.49040, 25.6390, 34.4904, 53.0436, 76.50, 23.5043, 1530.16, 166.10, 163.6, 6.10, 5.2, 3E
2009/04/21, 00:09:22, , , 23.04, 23.30, 1010.6, 19.5092180, -150.7363530, 291.00, 11.87, 291.00, 1010.54, 288.00, 0.0, 199.23, 83.21, 78.9, 310, 5.4, 53.04250, 34.48880, 25.6401, 34.4888, 53.0425, 76.80, 23.5057, 1530.16, 165.40, 161.6, 6.49, 5.1, 3E
2009/04/21, 00:10:22, , , 23.05, 23.20, 1010.5, 19.5103970, -150.7397120, 291.60, 12.53, 290.30, 1010.51, 278.40, 0.0, 199.23, 83.23, 79.1, 313, 5.6, 53.04050, 34.48780, 25.6395, 34.4878, 53.0405, 76.50, 23.5045, 1530.15, 168.30, 165.7, 5.75, 5.0, 3E
2009/04/21, 00:11:22, , , 23.06, 23.20, 1010.5, 19.5116230, -150.7430670, 289.90, 12.27, 289.60, 1010.51, 254.90, 0.0, 199.23, 83.86, 79.1, 310, 5.3, 53.04040, 34.48650, 25.6411, 34.4865, 53.0404, 76.80, 23.5054, 1530.15, 163.10, 164.5, 5.97, 5.3, 3E
2009/04/21, 00:12:22, , , 23.05, 23.20, 1010.5, 19.5128080, -150.7464700, 288.50, 12.52, 289.40, 1010.48, 248.90, 0.0, 199.23, 83.56, 79.8, 306, 5.8, 53.04100, 34.48570, 25.6428, 34.4857, 53.0410, 76.80, 23.5076, 1530.16, 166.10, 169.3, 6.01, 6.2, 3E
2009/04/21, 00:13:22, , , 23.05, 23.20, 1010.6, 19.5140320, -150.7498630, 291.40, 12.86, 290.20, 1010.42, 256.20, 0.0, 199.23, 83.28, 79.8, 310, 6.1, 53.04360, 34.48530, 25.6458, 34.4853, 53.0436, 76.50, 23.5092, 1530.16, 168.30, 167.3, 5.77, 5.9, 3E
2009/04/21, 00:14:22, , , 23.03, 23.20, 1010.6, 19.5152250, -150.7532620, 292.70, 12.57, 289.60, 1010.47, 257.60, 0.0, 199.23, 83.61, 79.7, 312, 5.4, 53.04740, 34.48560, 25.6491, 34.4856, 53.0474, 76.80, 23.5102, 1530.17, 163.40, 166.6, 5.59, 5.4, 3E
2009/04/21, 00:15:23, , , 23.01, 23.20, 1010.6, 19.5163850, -150.7566500, 289.10, 12.03, 289.70, 1010.45, 245.50, 0.0, 199.23, 83.67, 79.7, 309, 6.1, 53.05050, 34.48510, 25.6527, 34.4851, 53.0505, 76.50, 23.5080, 1530.16, 163.10, 173.9, 5.62, 6.0, 3E
2009/04/21, 00:16:23, , , 22.95, 23.10, 1010.5, 19.5175750, -150.7600380, 289.90, 12.29, 289.50, 1010.51, 230.40, 0.0, 199.23, 83.61, 79.9, 313, 6.3, 53.05510, 34.48530, 25.6569, 34.4853, 53.0551, 76.80, 23.5049, 1530.15, 169.30, 175.4, 5.49, 5.7, 3E
2009/04/21, 00:17:22, , , 22.98, 23.10, 1010.6, 19.5187520, -150.7634120, 289.60, 12.51, 289.20, 1010.59, 221.50, 0.0, 199.23, 83.96, 79.5, 313, 6.2, 53.06000, 34.48550, 25.6613, 34.4855, 53.0600, 76.80, 23.5020, 1530.15, 168.40, 176.5, 5.47, 4.6, 3E
2009/04/21, 00:18:22, , , 22.90, 23.10, 1010.6, 19.5199480, -150.7668030, 290.40, 12.12, 291.10, 1010.44, 224.70, 0.0, 199.23, 83.67, 79.7, 313, 6.4, 53.06410, 34.48610, 25.6645, 34.4861, 53.0641, 78.70, 23.4951, 1530.13, 166.30, 171.6, 5.15, 5.3, 3E
2009/04/21, 00:19:22, , , 22.91, 23.00, 1010.6, 19.5211200, -150.7701950, 287.80, 12.64, 288.90, 1010.46, 224.40, 0.0, 199.23, 83.62, 80.0, 312, 5.8, 53.06900, 34.48600, 25.6694, 34.4860, 53.0690, 77.20, 23.4893, 1530.11, 167.50, 172.3, 5.42, 5.6, 3E
2009/04/21, 00:20:22, , , 22.83, 23.00, 1010.4, 19.5222520, -150.7735770, 290.60, 11.88, 289.80, 1010.40, 220.70, 0.0, 199.23, 83.39, 80.0, 312, 6.5, 53.07410, 34.48650, 25.6737, 34.4865, 53.0741, 76.80, 23.4819, 1530.10, 172.10, 177.2, 5.30, 5.3, 3E
2009/04/21, 00:21:22, , , 22.82, 23.00, 1010.6, 19.5234170, -150.7769270, 289.50, 12.09, 288.40, 1010.55, 217.50, 0.0, 199.23, 83.60, 79.2, 315, 6.2, 53.08080, 34.48720, 25.6792, 34.4872, 53.0808, 77.20, 23.4743, 1530.08, 167.20, 174.9, 5.48, 5.3, 3E
2009/04/21, 00:22:23, , , 22.75, 22.90, 1010.7, 19.5245800, -150.7803120, 288.70, 11.91, 291.00, 1010.56, 214.80, 0.0, 199.23, 83.85, 79.2, 320, 6.8, 53.08670, 34.48700, 25.6852, 34.4870, 53.0867, 77.20, 23.4652, 1530.05, 167.80, 183.2, 5.19, 5.0, 3E
2009/04/21, 00:23:22, , , 22.83, 22.90, 1010.6, 19.5257850, -150.7836700, 290.70, 12.12, 289.00, 1010.60, 219.80, 0.1, 199.23, 84.41, 80.3, 322, 6.3, 53.09390, 34.48740, 25.6916, 34.4874, 53.0939, 77.20, 23.4588, 1530.04, 171.90, 178.8, 5.01, 4.4, 3E
2009/04/21, 00:24:23, , , 22.77, 22.90, 1010.7, 19.5269230, -150.7870530, 291.20, 12.07, 288.30, 1010.44, 250.20, 0.1, 199.23, 84.65, 81.4, 326, 5.9, 53.09980, 34.48730, 25.6975, 34.4873, 53.0998, 76.80, 23.4553, 1530.03, 166.40, 170.2, 4.59, 4.0, 3E
2009/04/21, 00:25:22, , , 22.70, 22.80, 1010.6, 19.5280700, -150.7904550, 288.50, 12.08, 290.00, 1010.30, 292.10, 0.0, 199.23, 85.32, 81.6, 326, 5.5, 53.10390, 34.48800, 25.7005, 34.4880, 53.1039, 77.20, 23.4479, 1530.01, 168.00, 168.1, 4.33, 4.0, 3E
2009/04/21, 00:26:22, , , 22.68, 22.80, 1010.6, 19.5292700, -150.7938520, 291.00, 12.10, 289.60, 1010.41, 315.30, 0.0, 199.23, 85.95, 82.1, 328, 5.6, 53.10670, 34.48770, 25.7036, 34.4877, 53.1067, 76.80, 23.4442, 1530.00, 158.40, 169.0, 4.23, 3.5, 3E
2009/04/21, 00:27:22, , , 22.55, 22.80, 1010.5, 19.5304570, -150.7972480, 293.50, 12.50, 289.60, 1010.60, 347.00, 0.1, 199.24, 85.93, 82.4, 326, 4.7, 53.10820, 34.48830, 25.7043, 34.4883, 53.1082, 77.20, 23.4440, 1530.00, 154.70, 157.3, 3.79, 3.8, 3E
2009/04/21, 00:28:22, , , 22.43, 22.70, 1010.5, 19.5316730, -150.8006370, 289.00, 12.56, 289.90, 1010.41, 321.80, 0.0, 199.24, 85.89, 81.8, 326, 5.3, 53.10930, 34.48860, 25.7048, 34.4886, 53.1093, 76.80, 23.4457, 1530.01, 151.00, 165.3, 4.40, 3.7, 3E
2009/04/21, 00:29:22, , , 22.36, 22.60, 1010.5, 19.5328830, -150.8040370, 292.80, 12.03, 289.70, 1010.49, 277.70, 0.0, 199.24, 85.73, 82.3, 328, 4.7, 53.11000, 34.48880, 25.7054, 34.4888, 53.1100, 76.80, 23.4483, 1530.01, 151.80, 158.1, 3.60, 4.3, 3E
2009/04/21, 00:30:22, , , 22.34, 22.50, 1010.5, 19.5340980, -150.8074420, 290.60, 12.78, 287.90, 1010.55, 267.50, 0.0, 199.24, 85.71, 82.5, 337, 4.5, 53.11080, 34.48910, 25.7057, 34.4891, 53.1108, 77.20, 23.4495, 1530.02, 144.00, 145.6, 3.84, 3.5, 3E
2009/04/21, 00:31:22, , , 22.37, 22.40, 1010.5, 19.5353130, -150.8108750, 288.80, 12.78, 290.00, 1010.39, 272.30, 0.0, 199.24, 86.00, 82.4, 336, 4.4, 53.11210, 34.49020, 25.7056, 34.4902, 53.1121, 77.20, 23.4540, 1530.03, 140.30, 156.2, 3.70, 3.4, 3E
2009/04/21, 00:32:22, , , 22.42, 22.40, 1010.5, 19.5365450, -150.8142950, 288.50, 12.14, 288.90, 1010.38, 320.00, 0.0, 199.24, 86.10, 83.4, 334, 4.8, 53.11240, 34.49030, 25.7056, 34.4903, 53.1124, 77.20, 23.4597, 1530.04, 143.80, 153.8, 3.52, 3.1, 3E
2009/04/21, 00:33:22, , , 22.39, 22.40, 1010.5, 19.5377380, -150.8177100, 286.80, 12.46, 290.50, 1010.36, 462.70, 0.0, 199.24, 85.80, 83.4, 331, 4.6, 53.11410, 34.49150, 25.7058, 34.4915, 53.1141, 77.20, 23.4652, 1530.06, 153.90, 156.4, 3.59, 3.8, 3E
2009/04/21, 00:34:22, , , 22.30, 22.40, 1010.4, 19.5389500, -150.8211180, 289.90, 12.01, 289.50, 1010.18, 375.70, 0.0, 199.24, 85.52, 82.4, 333, 4.2, 53.11720, 34.49200, 25.7081, 34.4920, 53.1172, 77.20, 23.4716, 1530.08, 142.50, 150.4, 3.66, 3.7, 3E
2009/04/21, 00:35:22, , , 22.40, 22.40, 1010.4, 19.5401770, -150.8245180, 294.40, 12.57, 288.90, 1010.35, 355.90, 0.0, 199.24, 86.04, 82.5, 335, 4.0, 53.11900, 34.49250, 25.7092, 34.4925, 53.1190, 76.80, 23.4738, 1530.08, 135.40, 142.1, 3.38, 3.3, 3E
2009/04/21, 00:36:23, , , 22.47, 22.40, 1010.4, 19.5414080, -150.8279120, 293.80, 12.29, 289.90, 1010.23, 494.50, 0.0, 199.24, 85.98, 83.4, 332, 3.6, 53.12130, 34.49340, 25.7103, 34.4934, 53.1213, 77.50, 23.4718, 1530.08, 135.50, 143.6, 3.89, 3.8, 3E
2009/04/21, 00:37:22, , , 22.45, 22.40, 1010.5, 19.5426200, -150.8312950, 290.50, 12.58, 290.30, 1010.25, 528.40, 0.0, 199.24, 85.84, 83.3, 337, 3.8, 53.12210, 34.49360, 25.7107, 34.4936, 53.1221, 77.50, 23.4678, 1530.07, 136.40, 142.6, 4.18, 3.7, 3E
2009/04/21, 00:38:22, , , 22.52, 22.40, 1010.4, 19.5438520, -150.8346470, 289.10, 12.46, 289.60, 1010.23, 355.90, 0.0, 199.24, 86.26, 83.6, 334, 3.8, 53.12370, 34.49480, 25.7106, 34.4948, 53.1237, 77.50, 23.4630, 1530.06, 133.90, 144.7, 3.96, 3.9, 3E
2009/04/21, 00:39:22, , , 22.50, 22.50, 1010.4, 19.5450370, -150.8380150, 289.70, 12.49, 288.90, 1010.24, 315.90, 0.0, 199.24, 86.22, 83.7, 336, 4.0, 53.12570, 34.49650, 25.7104, 34.4965, 53.1257, 77.50, 23.4595, 1530.05, 132.00, 152.6, 3.65, 3.5, 3E
2009/04/21, 00:40:23, , , 22.53, 22.50, 1010.4, 19.5462200, -150.8414020, 287.40, 12.52, 288.30, 1010.30, 269.20, 0.0, 199.24, 86.44, 83.9, 334, 3.9, 53.12650, 34.49820, 25.7089, 34.4982, 53.1265, 77.50, 23.4590, 1530.05, 137.10, 155.6, 3.71, 3.6, 3E
2009/04/21, 00:41:23, , , 22.47, 22.50, 1010.5, 19.5474420, -150.8447820, 291.50, 12.26, 290.00, 1010.20, 228.00, 0.0, 199.24, 86.20, 83.6, 334, 3.6, 53.12780, 34.50060, 25.7069, 34.5006, 53.1278, 77.50, 23.4569, 1530.05, 132.70, 142.7, 3.56, 4.2, 3E
2009/04/21, 00:42:22, , , 22.51, 22.50, 1010.4, 19.5486430, -150.8481780, 291.60, 12.20, 289.50, 1010.28, 234.30, 0.0, 199.24, 86.36, 83.6, 328, 3.6, 53.12880, 34.50190, 25.7061, 34.5019, 53.1288, 77.50, 23.4538, 1530.04, 135.10, 142.7, 3.93, 3.6, 3E
2009/04/21, 00:43:22, , , 22.61, 22.50, 1010.4, 19.5498820, -150.8515630, 286.60, 12.10, 290.60, 1010.22, 246.40, 0.0, 199.24, 86.54, 83.7, 344, 4.8, 53.12880, 34.50400, 25.7033, 34.5040, 53.1288, 77.50, 23.4524, 1530.04, 141.20, 158.7, 4.42, 3.2, 3E
2009/04/21, 00:44:22, , , 22.55, 22.60, 1010.4, 19.5511050, -150.8549330, 289.20, 12.35, 290.20, 1010.10, 279.20, 0.0, 199.24, 86.22, 83.8, 340, 4.1, 53.12730, 34.50620, 25.6990, 34.5062, 53.1273, 77.80, 23.4561, 1530.05, 134.90, 140.5, 2.99, 3.4, 3E
2009/04/21, 00:45:22, , , 22.57, 22.60, 1010.3, 19.5523320, -150.8583100, 290.00, 12.49, 289.30, 1010.30, 350.40, 0.0, 199.24, 86.45, 83.7, 339, 3.9, 53.12570, 34.50880, 25.6942, 34.5088, 53.1257, 77.50, 23.4590, 1530.06, 128.90, 146.4, 3.28, 3.2, 3E
2009/04/21, 00:46:22, , , 22.72, 22.60, 1010.3, 19.5535620, -150.8616930, 290.00, 12.33, 290.10, 1010.11, 354.60, 0.0, 199.24, 86.94, 84.7, 320, 4.4, 53.12190, 34.51090, 25.6876, 34.5109, 53.1219, 77.80, 23.4585, 1530.06, 139.90, 156.1, 3.80, 4.3, 3E
2009/04/21, 00:47:22, , , 22.73, 22.70, 1010.3, 19.5548080, -150.8650900, 296.40, 12.20, 288.80, 1010.11, 299.90, 0.0, 199.24, 86.51, 84.7, 329, 4.6, 53.11900, 34.51280, 25.6824, 34.5128, 53.1190, 77.50, 23.4604, 1530.07, 140.20, 159.4, 4.01, 4.0, 3E
2009/04/21, 00:48:22, , , 22.68, 22.70, 1010.3, 19.5560870, -150.8684670, 292.90, 12.09, 290.80, 1010.15, 249.20, 0.0, 199.24, 86.11, 83.9, 325, 5.1, 53.11240, 34.51470, 25.6733, 34.5147, 53.1124, 77.80, 23.4628, 1530.08, 151.70, 162.4, 4.25, 4.2, 3E
2009/04/21, 00:49:22, , , 22.72, 22.70, 1010.3, 19.5573650, -150.8718230, 293.20, 12.54, 289.70, 1010.20, 240.30, 0.0, 199.24, 85.97, 83.5, 325, 4.8, 53.10470, 34.51600, 25.6642, 34.5160, 53.1047, 78.10, 23.4681, 1530.09, 148.20, 170.6, 4.00, 4.4, 3E
2009/04/21, 00:50:22, , , 22.73, 22.70, 1010.4, 19.5586050, -150.8751930, 290.70, 12.76, 289.50, 1010.23, 221.00, 0.0, 199.24, 85.54, 83.1, 327, 4.9, 53.09770, 34.51810, 25.6548, 34.5181, 53.0977, 78.10, 23.4673, 1530.09, 152.20, 160.7, 4.33, 3.9, 3E
2009/04/21, 00:51:22, , , 22.83, 22.70, 1010.1, 19.5598320, -150.8785600, 292.10, 12.20, 288.90, 1010.20, 203.10, 0.0, 199.24, 85.72, 82.9, 329, 4.8, 53.08980, 34.51940, 25.6453, 34.5194, 53.0898, 78.10, 23.4641, 1530.09, 155.20, 168.4, 3.95, 4.2, 3E
2009/04/21, 00:52:22, , , 22.86, 22.80, 1010.3, 19.5610720, -150.8819330, 293.60, 11.95, 290.40, 1010.13, 195.20, 0.0, 199.24, 85.87, 83.1, 332, 5.1, 53.08260, 34.52080, 25.6367, 34.5208, 53.0826, 78.40, 23.4606, 1530.08, 156.00, 159.7, 3.76, 3.0, 3E
2009/04/21, 00:53:22, , , 22.86, 22.80, 1010.3, 19.5623330, -150.8852800, 292.90, 12.11, 289.10, 1010.25, 192.90, 0.0, 199.24, 85.94, 83.1, 331, 5.0, 53.07740, 34.52260, 25.6292, 34.5226, 53.0774, 78.10, 23.4589, 1530.08, 152.40, 166.4, 3.31, 3.2, 3E
2009/04/21, 00:54:23, , , 22.76, 22.80, 1010.3, 19.5635650, -150.8886350, 293.30, 11.99, 288.70, 1010.00, 200.10, 0.0, 199.24, 85.74, 82.8, 329, 5.3, 53.07180, 34.52400, 25.6220, 34.5240, 53.0718, 78.10, 23.4604, 1530.08, 154.70, 163.2, 3.52, 3.7, 3E
2009/04/21, 00:55:22, , , 22.73, 22.80, 1010.3, 19.5648200, -150.8919750, 291.70, 12.25, 289.90, 1010.20, 214.30, 0.0, 199.24, 85.65, 82.4, 330, 5.1, 53.06590, 34.52470, 25.6153, 34.5247, 53.0659, 78.10, 23.4650, 1530.09, 157.00, 164.1, 3.83, 3.8, 3E
2009/04/21, 00:56:22, , , 22.75, 22.70, 1010.4, 19.5660620, -150.8953100, 291.60, 11.96, 289.80, 1009.96, 234.70, 0.0, 199.24, 85.74, 82.7, 334, 5.1, 53.06330, 34.52610, 25.6110, 34.5261, 53.0633, 77.80, 23.4704, 1530.11, 158.70, 172.7, 3.41, 3.6, 3E
2009/04/21, 00:57:22, , , 22.75, 22.70, 1010.4, 19.5672630, -150.8986730, 289.60, 11.85, 289.60, 1010.25, 258.80, 0.0, 199.24, 85.71, 83.2, 337, 5.1, 53.06280, 34.52760, 25.6085, 34.5276, 53.0628, 78.10, 23.4739, 1530.12, 153.60, 164.5, 3.21, 3.6, 3E
2009/04/21, 00:58:22, , , 22.69, 22.70, 1010.4, 19.5685120, -150.9020330, 288.90, 12.13, 289.50, 1009.95, 273.60, 0.0, 199.24, 85.78, 83.0, 336, 5.4, 53.06440, 34.52950, 25.6075, 34.5295, 53.0644, 77.80, 23.4739, 1530.12, 160.00, 173.6, 3.21, 3.2, 3E
2009/04/21, 00:59:22, , , 22.65, 22.70, 1010.3, 19.5697480, -150.9054080, 289.90, 12.63, 290.20, 1010.09, 275.90, 0.0, 199.24, 85.89, 82.9, 340, 5.6, 53.06720, 34.53090, 25.6083, 34.5309, 53.0672, 77.80, 23.4709, 1530.12, 158.50, 175.6, 2.87, 2.7, 3E
2009/04/21, 01:00:22, , , 22.63, 22.70, 1010.3, 19.5709980, -150.9087600, 295.70, 12.42, 288.90, 1010.11, 280.20, 0.0, 199.24, 85.97, 82.9, 341, 5.4, 53.07160, 34.53250, 25.6105, 34.5325, 53.0716, 78.10, 23.4681, 1530.11, 150.10, 167.1, 2.41, 2.4, 3E
2009/04/21, 01:01:22, , , 22.61, 22.60, 1010.2, 19.5722350, -150.9121020, 293.80, 11.94, 289.40, 1010.14, 300.40, 0.0, 199.24, 86.23, 83.2, 342, 5.4, 53.07490, 34.53360, 25.6122, 34.5336, 53.0749, 77.80, 23.4632, 1530.10, 145.70, 162.4, 2.34, 2.3, 3E
2009/04/21, 01:02:22, , , 22.55, 22.60, 1010.2, 19.5734730, -150.9154350, 292.60, 12.71, 290.00, 1009.90, 316.40, 0.0, 199.24, 86.36, 83.4, 344, 5.7, 53.08000, 34.53570, 25.6145, 34.5357, 53.0800, 77.80, 23.4539, 1530.08, 153.30, 175.0, 2.13, 2.2, 3E
2009/04/21, 01:03:22, , , 22.55, 22.60, 1010.2, 19.5747070, -150.9187620, 287.90, 12.24, 288.70, 1010.08, 319.40, 0.0, 199.24, 86.87, 83.7, 344, 5.5, 53.08210, 34.53690, 25.6148, 34.5369, 53.0821, 77.80, 23.4440, 1530.06, 155.00, 179.1, 1.89, 2.3, 3E
2009/04/21, 01:04:22, , , 22.47, 22.60, 1010.2, 19.5759220, -150.9220970, 290.80, 11.83, 289.30, 1010.11, 363.70, 0.0, 199.24, 87.10, 84.1, 345, 5.4, 53.08460, 34.53800, 25.6158, 34.5380, 53.0846, 78.10, 23.4359, 1530.04, 153.70, 166.9, 2.02, 2.5, 3E
2009/04/21, 01:05:23, , , 22.39, 22.50, 1010.2, 19.5771500, -150.9254300, 286.70, 12.57, 289.60, 1010.29, 413.50, 0.0, 199.24, 87.09, 84.0, 348, 5.4, 53.08640, 34.53910, 25.6161, 34.5391, 53.0864, 77.80, 23.4323, 1530.03, 149.00, 164.1, 2.09, 2.3, 3E
2009/04/21, 01:06:22, , , 22.31, 22.40, 1010.2, 19.5784120, -150.9287400, 288.90, 12.35, 289.80, 1010.16, 479.90, 0.0, 199.24, 86.97, 83.5, 344, 5.4, 53.08540, 34.53940, 25.6148, 34.5394, 53.0854, 77.80, 23.4330, 1530.03, 139.30, 179.4, 1.83, 2.2, 3E
2009/04/21, 01:07:22, , , 22.26, 22.40, 1010.2, 19.5796370, -150.9320630, 292.50, 11.65, 290.90, 1009.96, 607.70, 0.0, 199.24, 86.48, 83.5, 350, 7.0, 53.08260, 34.54010, 25.6111, 34.5401, 53.0826, 77.80, 23.4323, 1530.03, 153.30, 208.5, 1.61, 1.5, 3E
2009/04/21, 01:08:22, , , 22.10, 22.30, 1010.3, 19.5808650, -150.9353700, 288.80, 12.35, 290.90, 1010.26, 412.90, 0.0, 199.24, 86.63, 82.7, 351, 6.2, 53.07820, 34.53980, 25.6073, 34.5398, 53.0782, 78.10, 23.4294, 1530.02, 180.80, 171.2, 0.99, 1.7, 3E
2009/04/21, 01:09:22, , , 21.97, 22.20, 1010.3, 19.5821050, -150.9386700, 290.00, 11.83, 288.90, 1010.07, 418.60, 0.0, 199.24, 86.37, 83.0, 354, 5.8, 53.07460, 34.54040, 25.6030, 34.5404, 53.0746, 78.10, 23.4228, 1530.01, 135.50, 168.1, 1.02, 1.8, 3E
2009/04/21, 01:10:22, , , 21.99, 22.10, 1010.3, 19.5833620, -150.9419500, 294.70, 12.19, 289.00, 1010.13, 688.30, 0.0, 199.24, 86.50, 83.2, 353, 5.4, 53.07160, 34.54070, 25.5997, 34.5407, 53.0716, 78.10, 23.4171, 1529.99, 132.20, 162.1, 1.34, 1.1, 3E
2009/04/21, 01:11:22, , , 21.99, 22.00, 1010.3, 19.5845670, -150.9452830, 290.60, 12.12, 289.80, 1010.18, 761.70, 0.0, 199.24, 86.52, 83.2, 354, 5.3, 53.06870, 34.54110, 25.5964, 34.5411, 53.0687, 78.10, 23.4162, 1529.99, 122.60, 168.5, 1.50, 1.8, 3E
2009/04/21, 01:12:22, , , 22.00, 22.00, 1010.3, 19.5857750, -150.9486200, 285.10, 12.47, 290.60, 1010.33, 746.10, 0.0, 199.24, 86.51, 83.5, 356, 4.9, 53.06740, 34.54080, 25.5956, 34.5408, 53.0674, 78.10, 23.4156, 1529.99, 135.20, 147.8, 1.85, 1.5, 3E
2009/04/21, 01:13:22, , , 21.96, 22.00, 1010.2, 19.5870150, -150.9519220, 292.30, 12.22, 288.60, 1010.06, 400.20, 0.0, 199.24, 86.59, 83.5, 357, 4.5, 53.06560, 34.54110, 25.5934, 34.5411, 53.0656, 77.80, 23.4124, 1529.98, 118.10, 140.8, 1.52, 1.9, 3E
2009/04/21, 01:14:22, , , 22.01, 22.00, 1010.3, 19.5882470, -150.9552230, 296.10, 12.01, 289.50, 1010.14, 656.00, 0.0, 199.24, 86.53, 83.9, 356, 4.2, 53.06460, 34.54090, 25.5927, 34.5409, 53.0646, 78.10, 23.4132, 1529.98, 114.10, 123.1, 2.19, 2.3, 3E
2009/04/21, 01:15:22, , , 22.04, 22.00, 1010.2, 19.5894900, -150.9585370, 294.70, 12.05, 288.80, 1009.96, 724.20, 0.0, 199.24, 86.64, 83.8, 346, 3.9, 53.06360, 34.54160, 25.5908, 34.5416, 53.0636, 78.10, 23.4157, 1529.99, 108.70, 137.6, 2.50, 3.0, 3E
2009/04/21, 01:16:22, , , 22.15, 22.00, 1010.2, 19.5907130, -150.9618480, 290.40, 11.89, 290.50, 1010.03, 661.30, 0.0, 199.24, 86.68, 84.0, 342, 3.5, 53.06310, 34.54050, 25.5918, 34.5405, 53.0631, 78.10, 23.4160, 1529.99, 115.30, 132.0, 2.89, 3.4, 3E
2009/04/21, 01:17:22, , , 22.27, 22.10, 1010.3, 19.5919620, -150.9651830, 288.80, 12.30, 289.80, 1010.05, 630.20, 0.0, 199.24, 86.75, 84.3, 346, 3.9, 53.06410, 34.54050, 25.5928, 34.5405, 53.0641, 78.10, 23.4175, 1529.99, 129.30, 137.4, 3.31, 3.0, 3E
2009/04/21, 01:18:22, , , 22.32, 22.20, 1010.1, 19.5931930, -150.9685280, 291.30, 12.33, 289.40, 1010.15, 627.90, 0.0, 199.24, 86.50, 84.5, 345, 3.8, 53.06260, 34.53970, 25.5923, 34.5397, 53.0626, 78.10, 23.4192, 1530.00, 122.20, 127.7, 2.89, 2.5, 3E
2009/04/21, 01:19:23, , , 22.27, 22.30, 1010.1, 19.5944250, -150.9718680, 287.80, 12.23, 290.30, 1010.10, 615.30, 0.0, 199.24, 86.71, 84.1, 354, 3.9, 53.06130, 34.53940, 25.5914, 34.5394, 53.0613, 78.10, 23.4223, 1530.00, 126.40, 135.3, 2.86, 2.6, 3E
2009/04/21, 01:20:23, , , 22.30, 22.30, 1010.1, 19.5957120, -150.9751920, 291.40, 12.73, 289.80, 1010.12, 598.00, 0.0, 199.24, 86.90, 83.9, 345, 3.9, 53.05850, 34.53930, 25.5888, 34.5393, 53.0585, 78.40, 23.4270, 1530.01, 125.70, 140.3, 2.68, 2.6, 3E
2009/04/21, 01:21:22, , , 22.36, 22.30, 1010.1, 19.5969580, -150.9785400, 289.90, 12.52, 289.20, 1009.86, 582.50, 0.0, 199.24, 87.17, 84.1, 347, 4.5, 53.05640, 34.53900, 25.5873, 34.5390, 53.0564, 78.10, 23.4330, 1530.03, 135.10, 155.9, 3.08, 2.6, 3E
2009/04/21, 01:22:22, , , 22.46, 22.30, 1010.1, 19.5982170, -150.9818730, 294.00, 11.74, 289.10, 1010.08, 576.10, 0.0, 199.24, 87.15, 84.7, 342, 5.0, 53.05670, 34.53960, 25.5867, 34.5396, 53.0567, 78.40, 23.4351, 1530.04, 123.20, 139.6, 2.61, 2.5, 3E
2009/04/21, 01:23:22, , , 22.49, 22.40, 1010.2, 19.5994670, -150.9852170, 290.10, 12.40, 289.70, 1010.16, 580.40, 0.0, 199.24, 87.27, 85.0, 342, 4.7, 53.05820, 34.53970, 25.5880, 34.5397, 53.0582, 78.40, 23.4356, 1530.04, 148.40, 156.8, 2.96, 2.6, 3E
2009/04/21, 01:24:22, , , 22.41, 22.50, 1010.2, 19.6007520, -150.9885570, 293.00, 12.11, 288.60, 1010.20, 577.80, 0.0, 199.24, 86.90, 84.1, 342, 4.3, 53.05950, 34.54050, 25.5882, 34.5405, 53.0595, 78.40, 23.4366, 1530.04, 138.30, 154.4, 2.94, 2.9, 3E
2009/04/21, 01:25:22, , , 22.39, 22.40, 1010.2, 19.6018830, -150.9919380, 288.60, 12.20, 287.50, 1010.07, 573.20, 0.0, 199.24, 86.84, 83.6, 339, 4.4, 53.06140, 34.54150, 25.5888, 34.5415, 53.0614, 78.70, 23.4320, 1530.03, 141.00, 149.6, 3.11, 2.7, 3E
2009/04/21, 01:26:22, , , 22.46, 22.40, 1010.1, 19.6029970, -150.9953250, 289.30, 12.65, 289.20, 1010.06, 571.60, 0.0, 199.24, 87.09, 84.1, 339, 4.7, 53.06360, 34.54290, 25.5891, 34.5429, 53.0636, 78.70, 23.4254, 1530.01, 141.60, 159.4, 2.92, 3.0, 3E
2009/04/21, 01:27:22, , , 22.52, 22.50, 1010.1, 19.6040700, -150.9986900, 289.70, 12.24, 287.00, 1010.10, 562.80, 0.0, 199.24, 87.10, 84.3, 337, 4.8, 53.06330, 34.54360, 25.5879, 34.5436, 53.0633, 78.70, 23.4204, 1530.00, 138.60, 161.1, 2.90, 3.5, 3E
2009/04/21, 01:28:22, , , 22.52, 22.50, 1010.1, 19.6051970, -151.0020550, 287.90, 12.57, 287.80, 1010.11, 563.30, 0.0, 199.24, 87.18, 84.6, 334, 4.5, 53.06310, 34.54520, 25.5856, 34.5452, 53.0631, 78.70, 23.4181, 1530.00, 148.60, 152.0, 3.34, 3.4, 3E
2009/04/21, 01:29:22, , , 22.54, 22.50, 1010.1, 19.6063280, -151.0054300, 291.00, 11.80, 289.10, 1009.86, 563.30, 0.0, 199.24, 87.29, 84.5, 335, 4.7, 53.06080, 34.54550, 25.5829, 34.5455, 53.0608, 78.70, 23.4169, 1530.00, 139.80, 158.6, 3.00, 3.2, 3E
2009/04/21, 01:30:22, , , 22.53, 22.50, 1010.2, 19.6074580, -151.0088050, 290.80, 12.01, 287.50, 1009.97, 557.80, 0.0, 199.24, 87.17, 84.3, 334, 4.8, 53.05770, 34.54720, 25.5778, 34.5472, 53.0577, 78.70, 23.4145, 1529.99, 141.00, 152.9, 2.97, 3.0, 3E
2009/04/21, 01:31:22, , , 22.55, 22.60, 1010.2, 19.6085850, -151.0121580, 290.40, 12.69, 287.60, 1010.27, 556.90, 0.0, 199.24, 87.35, 84.2, 333, 4.6, 53.05130, 34.54780, 25.5707, 34.5478, 53.0513, 78.70, 23.4137, 1529.99, 146.10, 155.5, 2.98, 3.2, 3E
2009/04/21, 01:32:22, , , 22.52, 22.50, 1010.0, 19.6097130, -151.0155020, 289.80, 11.59, 287.10, 1010.06, 548.50, 0.0, 199.24, 87.16, 84.0, 331, 4.4, 53.04590, 34.54880, 25.5642, 34.5488, 53.0459, 78.40, 23.4131, 1529.99, 139.40, 157.2, 3.39, 3.9, 3E